SCP
-0 0 0 0 0 0 0 0 -0 -0 0 0 0 0 0 -0 -0 -0 0 0 0 0
0 -0 0 0 0 -0 0 0 0 0 0 0 0 0 0 -0 0 0 0 0 0 -0
0 0 0 0 0 0 0 0 0 0 0 0 0 0 0 0 0 0 0 0 0 0
0 0 0 0 0 0 0 0 0 0 0 0 0 0 0 0 0 0 0 0 0 0
0 0 0 0 0 0 0 0 0 0 0 0 0 0 0 0 0 0 0 0 0 0
0 0 0 0 0 0 0 0 0 0 0 0 0 0 0 0 0 0 0 0 0 0
1 1 0 0 0 0 0 0 0 0 0 0 0 0 0 0 0 0 0 0 0 0
2 1 1 1 1 0 0 0 0 0 0 0 0 0 0 0 0 0 0 0 0 0
3 2 1 1 2 1 1 1 1 0 0 0 0 0 0 0 0 0 0 0 0 0
3 3 2 2 2 1 1 1 1 1 0 0 1 0 0 0 0 0 1 1 1 0
2 2 2 1 1 2 2 1 2 1 1 1 0 0 0 0 0 1 1 1 0 1
2 2 2 1 2 1 1 2 2 2 2 1 0 0 0 0 1 1 0 0 0 0
1 2 2 1 1 1 0 0 0 0 0 0 0 0 0 0 2 1 0 0 0 0
0 0 1 0 0 0 0 0 0 0 0 0 0 0 0 0 0 0 0 0 0 0
Wind_Speed_500mb
31 26 24 24 22 28 18 16 21 17 16 14 12 6 9 5 6 18 6 7 10 7
35 34 23 24 18 25 16 12 19 14 17 15 13 12 13 5 10 14 6 10 12 8
37 34 31 27 30 26 15 22 18 14 13 13 17 18 24 14 16 16 11 13 7 13
34 33 34 30 26 30 25 26 25 19 19 18 16 15 18 19 13 14 11 15 10 10
37 34 34 34 30 29 27 24 25 21 21 21 20 17 16 17 20 13 12 12 14 15
42 37 36 33 32 32 31 29 24 22 22 20 19 18 18 21 18 20 17 18 20 19
52 47 39 35 31 30 33 28 29 26 27 24 24 21 18 20 21 22 21 21 21 25
57 52 49 43 39 36 32 33 32 34 30 28 25 23 26 25 19 19 20 22 24 27
59 55 50 47 45 39 35 32 27 29 30 29 26 35 37 33 22 22 24 27 21 24
64 56 54 51 49 45 41 32 30 27 27 31 38 46 44 37 31 24 28 23 18 18
50 46 46 43 44 44 38 35 36 33 29 32 42 35 31 27 25 23 18 17 13 13
50 43 37 38 39 34 34 38 36 40 32 33 41 34 31 30 24 22 24 18 15 18
39 38 36 36 36 40 39 38 37 37 42 47 41 36 33 30 26 21 20 16 17 18
26 33 36 34 31 28 25 27 28 30 35 36 29 28 28 28 28 26 23 17 17 20
Wind_Direction_500mb
207 215 223 224 230 224 223 201 214 239 213 216 232 229 265 279 271 212 267 251 273 259
210 205 215 220 208 216 240 203 196 202 207 210 223 231 252 231 258 285 269 246 250 284
219 216 213 213 226 198 228 219 176 195 218 217 227 234 255 241 249 250 246 278 209 279
214 219 217 219 224 221 222 222 221 216 228 232 232 238 249 236 244 251 240 262 276 260
211 212 216 215 217 219 213 218 224 222 225 221 228 243 246 244 264 203 252 265 259 273
212 210 212 213 215 214 219 214 219 230 229 232 237 232 235 227 243 253 259 266 268 266
210 207 210 211 212 214 217 224 223 225 229 219 223 230 236 246 241 244 261 268 268 263
209 206 205 209 213 212 216 217 219 219 224 226 231 242 239 234 249 247 252 260 263 260
206 210 211 216 215 221 221 219 221 218 223 221 234 239 242 245 243 261 258 255 260 263
213 215 215 218 217 219 224 222 228 230 229 224 225 233 240 246 245 243 254 253 254 252
209 211 219 220 218 220 221 224 225 229 233 232 235 238 239 236 233 239 240 249 243 237
217 207 203 208 208 217 228 232 232 236 234 232 245 243 241 241 226 214 226 236 252 254
196 198 207 212 211 221 230 235 240 243 243 243 249 244 227 200 191 211 235 255 253 245
224 207 210 214 214 216 221 219 223 226 229 233 220 206 205 213 224 233 240 245 255 253
Wind_Speed_850mb
31 26 24 24 22 28 18 16 21 17 16 14 12 6 9 5 6 18 6 7 10 7
35 34 23 24 18 25 16 12 19 14 17 15 13 12 13 5 10 14 6 10 12 8
37 34 31 27 30 26 15 22 18 14 13 13 17 18 24 14 16 16 11 13 7 13
34 33 34 30 26 30 25 26 25 19 19 18 16 15 18 19 13 14 11 15 10 10
37 34 34 34 30 29 27 24 25 21 21 21 20 17 16 17 20 13 12 12 14 15
42 37 36 33 32 32 31 29 24 22 22 20 19 18 18 21 18 20 17 18 20 19
52 47 39 35 31 30 33 28 29 26 27 24 24 21 18 20 21 22 21 21 21 25
57 52 49 43 39 36 32 33 32 34 30 28 25 23 26 25 19 19 20 22 24 27
59 55 50 47 45 39 35 32 27 29 30 29 26 35 37 33 22 22 24 27 21 24
64 56 54 51 49 45 41 32 30 27 27 31 38 46 44 37 31 24 28 23 18 18
50 46 46 43 44 44 38 35 36 33 29 32 42 35 31 27 25 23 18 17 13 13
50 43 37 38 39 34 34 38 36 40 32 33 41 34 31 30 24 22 24 18 15 18
39 38 36 36 36 40 39 38 37 37 42 47 41 36 33 30 26 21 20 16 17 18
26 33 36 34 31 28 25 27 28 30 35 36 29 28 28 28 28 26 23 17 17 20
Wind_Direction_850mb
207 215 223 224 230 224 223 201 214 239 213 216 232 229 265 279 271 212 267 251 273 259
210 205 215 220 208 216 240 203 196 202 207 210 223 231 252 231 258 285 269 246 250 284
219 216 213 213 226 198 228 219 176 195 218 217 227 234 255 241 249 250 246 278 209 279
214 219 217 219 224 221 222 222 221 216 228 232 232 238 249 236 244 251 240 262 276 260
211 212 216 215 217 219 213 218 224 222 225 221 228 243 246 244 264 203 252 265 259 273
212 210 212 213 215 214 219 214 219 230 229 232 237 232 235 227 243 253 259 266 268 266
210 207 210 211 212 214 217 224 223 225 229 219 223 230 236 246 241 244 261 268 268 263
209 206 205 209 213 212 216 217 219 219 224 226 231 242 239 234 249 247 252 260 263 260
206 210 211 216 215 221 221 219 221 218 223 221 234 239 242 245 243 261 258 255 260 263
213 215 215 218 217 219 224 222 228 230 229 224 225 233 240 246 245 243 254 253 254 252
209 211 219 220 218 220 221 224 225 229 233 232 235 238 239 236 233 239 240 249 243 237
217 207 203 208 208 217 228 232 232 236 234 232 245 243 241 241 226 214 226 236 252 254
196 198 207 212 211 221 230 235 240 243 243 243 249 244 227 200 191 211 235 255 253 245
224 207 210 214 214 216 221 219 223 226 229 233 220 206 205 213 224 233 240 245 255 253